ボアッティーニ彗星

P/2010 U1 ( Boattini ) 2026

English version
Home page
Updated on February 6, 2022

---------------------------------------------------------------------

・ プロフィール

・ 軌道要素

Epoch 2026 Aug. 28.0 TT = JDT 2461280.5
T 2026 Sept.  9.94081 TT                                MPC
q   4.8753357            (2000.0)            P               Q
n   0.05974946     Peri.   86.68944     +0.98170616     -0.12836253
a   6.4800751      Node   280.65180     +0.05866801     +0.90657346
e   0.2476421      Incl.    8.22687     +0.18113830     +0.40205426
P  16.5
From 109 observations 2009 Sept. 17-2011 Dec. 28, mean residual 0".5.

・ 光度変化

        m1 = 9.0 + 5 logΔ + 10.0 log r

---------------------------------------------------------------------

軌道要素はM.P.E.C. 2013-B90に掲載されたものです。
光度グラフはComet for Windowsで作成したものです。

---------------------------------------------------------------------

Copyright(C) Seiichi Yoshida (comet@aerith.net). All rights reserved.